Simultaneous Nadir Overpasses (SNOs) Predictions

Prediction of SNOs between GOES-17 and AQUA Satellite Orbit:

Table of predicted SNOs for the next 14.0 days since TLE Epoch: 5/31/2019
Index Date Time (GOES-17) GOES-17 Lat,Lon AQUA Lat,Lon Distance(km) Time Diff (sec)
1 06/01/2019 22:30:28 0.01,-137.19 0.79,-133.48 421.10 80
2 06/02/2019 10:51:43 -0.01,-137.20 0.29,-138.64 163.17 80
3 06/04/2019 10:36:51 -0.01,-137.19 -0.32,-135.68 172.03 80
4 06/04/2019 22:58:16 0.02,-137.17 -0.77,-140.88 421.13 80
5 06/06/2019 22:46:04 0.02,-137.15 -0.15,-137.92 86.84 80
6 06/08/2019 22:36:32 0.01,-137.13 0.47,-134.96 247.17 80
7 06/09/2019 10:57:47 -0.01,-137.15 0.62,-140.11 337.24 80
8 06/11/2019 10:45:35 -0.01,-137.12 0.00,-137.16 3.80 80
9 06/13/2019 10:30:43 -0.01,-137.09 -0.62,-134.20 329.10 80
10 06/13/2019 22:52:08 0.01,-137.06 -0.46,-139.40 265.08 80




NCC Satellite Simultaneous Nadir Overpasses (SNOs) Prediction Service
